Ottumwa, IA

5:59 AM CDT on October 17, 2019 (GMT -0500)
Ottumwa Industrial

Weather History for KOTM - August, 2019

Change the Weather History Date:

Tuesday, August 27, 2019

  Actual Average Record
Temperature  
Mean Temperature 68 °F 71 °F  
Max Temperature 78 °F 82 °F 100 °F (1936)
Min Temperature 57 °F 61 °F 47 °F (1986)
Degree Days  
Heating Degree Days 0 0  
Month to date heating degree days 0 0  
Since 1 June heating degree days 4 23  
Since 1 July heating degree days 0 2  
Cooling Degree Days 3 7  
Month to date cooling degree days 213 229  
Year to date cooling degree days 860 808  
Since 1 June cooling degree days 797 744  
Growing Degree Days 18 (Base 50)    
Moisture  
Dew Point 57 °F    
Average Humidity 72    
Maximum Humidity 100    
Minimum Humidity 43    
Precipitation  
Precipitation 0.00 in 0.15 in 2.56 in (1998)
Month to date precipitation 3.13 4.04  
Year to date precipitation 29.65 26.13  
Sea Level Pressure  
Sea Level Pressure 29.91 in    
Wind  
Wind Speed 10 mph (West)    
Max Wind Speed 22 mph    
Max Gust Speed 31 mph    
Visibility 10 miles    
Events      
T = Trace of Precipitation, MM = Missing Value Source: NWS Daily Summary

Daily Weather History Graph

Daily Weather History Graph

Search for Another Location

Airport or City:

Astronomy

Aug. 27, 2019 Rise Set
Actual Time 6:31 AM CDT 7:50 PM CDT
Civil Twilight 6:02 AM CDT 8:19 PM CDT
Nautical Twilight 5:28 AM CDT 8:53 PM CDT
Astronomical Twilight 4:51 AM CDT 9:29 PM CDT
Moon 2:54 AM CDT (8/27) 6:13 PM CDT (8/27)
Length of Visible Light 14h 16m
Length of Day
13h 19m
Waning Crescent, 11% of the Moon is Illuminated
Aug 27
Waning Crescent
Aug 30
New
Sep 5
First Quarter
Sep 13
Full
Sep 21
Last Quarter

Hourly Weather History & Observations

Time (CDT) Temp. Dew Point Humidity Pressure Visibility Wind Dir Wind Speed Gust Speed Precip Events Conditions
12:53 AM 63.0 °F 61.0 °F 93% 29.81 in 7.0 mi WSW 4.6 mph - N/A   Clear
1:53 AM 63.0 °F 62.1 °F 97% 29.81 in 9.0 mi WSW 4.6 mph - N/A   Clear
2:53 AM 64.0 °F 62.1 °F 93% 29.83 in 10.0 mi SW 5.8 mph - N/A   Clear
3:53 AM 64.0 °F 62.1 °F 93% 29.84 in 10.0 mi West 8.1 mph - N/A   Clear
4:53 AM 63.0 °F 61.0 °F 93% 29.84 in 10.0 mi WSW 6.9 mph - N/A   Clear
5:53 AM 63.0 °F 60.1 °F 90% 29.84 in 10.0 mi WSW 8.1 mph - N/A   Clear
6:53 AM 62.1 °F 60.1 °F 93% 29.87 in 10.0 mi West 6.9 mph - N/A   Clear
7:53 AM 64.0 °F 61.0 °F 90% 29.89 in 10.0 mi West 8.1 mph - N/A   Clear
8:53 AM 66.0 °F 61.0 °F 84% 29.91 in 10.0 mi West 10.4 mph - N/A   Clear
9:53 AM 69.1 °F 60.1 °F 73% 29.91 in 10.0 mi WNW 9.2 mph - N/A   Clear
10:53 AM 73.0 °F 60.1 °F 64% 29.92 in 10.0 mi West 9.2 mph - N/A   Clear
11:53 AM 75.0 °F 57.9 °F 55% 29.93 in 10.0 mi West 12.7 mph 23.0 mph N/A   Clear
12:53 PM 77.0 °F 57.9 °F 52% 29.92 in 10.0 mi WNW 16.1 mph 27.6 mph N/A   Clear
1:53 PM 77.0 °F 55.9 °F 48% 29.92 in 10.0 mi WNW 18.4 mph 28.8 mph N/A   Clear
2:53 PM 77.0 °F 55.9 °F 48% 29.92 in 10.0 mi WNW 15.0 mph - N/A   Clear
3:53 PM 77.0 °F 55.0 °F 47% 29.92 in 10.0 mi WNW 17.3 mph 26.5 mph N/A   Scattered Clouds
4:53 PM 77.0 °F 54.0 °F 45% 29.92 in 10.0 mi West 15.0 mph 25.3 mph N/A   Clear
5:53 PM 75.9 °F 53.1 °F 45% 29.93 in 10.0 mi West 12.7 mph 20.7 mph N/A   Clear
6:53 PM 73.0 °F 52.0 °F 48% 29.94 in 10.0 mi West 11.5 mph - N/A   Clear
7:53 PM 69.1 °F 54.0 °F 58% 29.95 in 10.0 mi WSW 8.1 mph - N/A   Clear
8:53 PM 64.9 °F 54.0 °F 68% 29.97 in 10.0 mi West 6.9 mph - N/A   Clear
9:53 PM 61.0 °F 53.1 °F 75% 29.99 in 10.0 mi West 5.8 mph - N/A   Clear
10:53 PM 60.1 °F 52.0 °F 75% 29.98 in 10.0 mi West 5.8 mph - N/A   Clear
11:53 PM 59.0 °F 53.1 °F 81% 29.98 in 10.0 mi WSW 6.9 mph - N/A   Clear